This is the latest recevied weather packets stored in our database for station/object N7WSS. If no packets are shown the sender has not sent any weather packets the latest 1 day(s).
| Time | Temp. | Humidity | Pressure | Rain* | Wind** | Luminosity | Snow |
|---|---|---|---|---|---|---|---|
| 1778036030 | 18.33° C | 40% | 1010.4 hPa | 0 mm | - | - | - |
| 1778035120 | 18.33° C | 39% | 1010.1 hPa | 0 mm | - | - | - |
| 1778034817 | 18.89° C | 40% | 1009.9 hPa | 0 mm | - | - | - |
| 1778034514 | 18.89° C | 39% | 1009.9 hPa | 0 mm | - | - | - |
| 1778034212 | 18.89° C | 39% | 1009.9 hPa | 0 mm | - | - | - |
| 1778033910 | 18.89° C | 39% | 1009.7 hPa | 0 mm | - | - | - |
| 1778033303 | 19.44° C | 38% | 1009.3 hPa | 0 mm | - | - | - |
| 1778032699 | 20° C | 35% | 1009.1 hPa | 0 mm | - | - | - |
| 1778032396 | 20° C | 35% | 1009.2 hPa | 0 mm | - | - | - |
| 1778031789 | 20.56° C | 33% | 1009 hPa | 0 mm | - | - | - |
| 1778031486 | 20.56° C | 33% | 1009 hPa | 0 mm | - | - | - |
| 1778030880 | 21.11° C | 34% | 1008.9 hPa | 0 mm | - | - | - |
| 1778030274 | 21.11° C | 34% | 1008.8 hPa | 0 mm | - | - | - |
| 1778029970 | 21.11° C | 35% | 1008.9 hPa | 0 mm | - | - | - |
| 1778029668 | 21.11° C | 34% | 1008.7 hPa | 0 mm | - | - | - |
| 1778029063 | 21.67° C | 34% | 1008.7 hPa | 0 mm | - | - | - |
| 1778028455 | 21.11° C | 33% | 1008.5 hPa | 0 mm | - | - | - |
| 1778028153 | 21.67° C | 33% | 1008.4 hPa | 0 mm | - | - | - |
| 1778027849 | 22.22° C | 32% | 1008.5 hPa | 0 mm | - | - | - |
| 1778026938 | 22.78° C | 30% | 1008.4 hPa | 0 mm | - | - | - |
| 1778026634 | 23.33° C | 29% | 1008.3 hPa | 0 mm | - | - | - |
| 1778025424 | 23.33° C | 29% | 1008.4 hPa | 0 mm | - | - | - |
| 1778025121 | 23.33° C | 29% | 1008.2 hPa | 0 mm | - | - | - |
| 1778023304 | 23.89° C | 26% | 1008.2 hPa | 0 mm | - | - | - |
| 1778023000 | 23.33° C | 26% | 1008.3 hPa | 0 mm | - | - | - |
* Rain latest hour (hover to see other rain measurements)
** Current wind speed in m/s (hover to see current wind gust speed)